Regional Weather Roundup
Issued by NWS

Home | Current Version | Previous Version | Graphics & Text | Print | Product List | Glossary Off
Versions: 1 2 3 4 5 6 7 8 9 10 11 12 13 14 15 16 17 18 19 20 21 22 23 24 25 26 27 28 29 30 31 32 33 34 35 36 37 38 39 40 41 42 43 44 45 46 47 48 49 50

000
ASUS43 KMKX 241721
RWRWI

WISCONSIN REGIONAL WEATHER ROUNDUP
NATIONAL WEATHER SERVICE MILWAUKEE/SULLIVAN WI
1200 PM CDT THU APR 24 2014

NOTE: "FAIR" INDICATES FEW OR NO CLOUDS BELOW 12,000 FEET WITH NO
SIGNIFICANT WEATHER AND/OR OBSTRUCTIONS TO VISIBILITY.

WIZ001-002-006>008-014>016-023>028-241800-
NORTHWEST WISCONSIN

CITY           SKY/WX    TMP DP  RH WIND       PRES   REMARKS
SUPERIOR ARPT  LGT RAIN  34  33  98 NE12G17   29.88F WCI  25
ASHLAND        LGT RAIN  37  35  92 NE8       29.93F WCI  31
HAYWARD        LGT RAIN  37  35  92 E9        29.84F WCI  30
SIREN          RAIN      39  38  97 E6        29.80F WCI  35
RICE LAKE      RAIN      40  38  91 E12G18    29.82F WCI  33
LADYSMITH      RAIN      39  37  91 SE12      29.86F WCI  32
EAU CLAIRE     LGT RAIN  42  40  92 SE10      29.76F FOG
MENOMONIE      DRIZZLE   41  40  99 E8        29.78F
NEW RICHMOND   RAIN      40  40  99 E10       29.76F WCI  33
OSCEOLA        RAIN      40  40  99 E9        29.79F WCI  35
$$

WIZ003>005-009-010-017-018-241800-
NORTH CENTRAL WISCONSIN

CITY           SKY/WX    TMP DP  RH WIND       PRES   REMARKS
WOODRUFF       LGT SNOW  37  34  90 SE12G21   29.92F WCI  29
RHINELANDER    LGT SNOW  33  31  92 E13       29.94F FOG     WCI  24
EAGLE RIVER    LGT SNOW  34  33  96 SE10      29.95F WCI  26
LAND O LAKES   LGT RAIN  36  32  85 SE7       29.96F WCI  31
PHILLIPS       LGT RAIN  33  32  96 E7        29.87F WCI  27
TOMAHAWK       LGT RAIN  34  32  94 E9        29.90F WCI  27
MEDFORD        LGT RAIN  37  35  92 E17G24    29.85F WCI  28
MERRILL        LGT RAIN  37  36  95 SE12G21   29.90F WCI  29
$$

WIZ029-030-035-036-043>047-241800-
CENTRAL WISCONSIN

CITY           SKY/WX    TMP DP  RH WIND       PRES   REMARKS
WAUSAU         MIX PCPN  37  35  92 E15       29.89F FOG     WCI  28
MOSINEE        LGT RAIN  37  37 100 E14G21    29.90F WCI  29
MARSHFIELD     LGT RAIN  40  37  89 SE15      29.85F FOG     WCI  32
STEVENS POINT  CLOUDY    38  37  95 E17       29.89F WCI  28
WAUPACA        LGT RAIN  45  39  81 E9        29.93F
WAUTOMA        CLOUDY    43  39  85 E8        29.92F
WISC RAPIDS    LGT RAIN  42  38  85 E14G20    29.88F
CAMP DOUGLAS   LGT RAIN  41  41 100 E17       29.82F FOG
$$

WIZ011>013-019>022-031-037>040-048>050-241800-
NORTHEAST WISCONSIN

CITY           SKY/WX    TMP DP  RH WIND       PRES   REMARKS
ANTIGO         LGT SNOW  33  32  98 E16G22    29.94F WCI  22
STURGEON BAY   CLOUDY    39  34  81 SE7       30.04F WCI  34
GREEN BAY      LGT RAIN  42  39  89 E10       29.99F
MANITOWOC      CLOUDY    41  38  89 E16       29.99F
APPLETON       CLOUDY    43  39  87 E7        29.96F
CLINTONVILLE   LGT RAIN  39  37  93 E12G18    29.96F WCI  32
OSHKOSH        CLOUDY    44  37  76 E12       29.93F
$$

WIZ032>034-041-042-053>061-241800-
SOUTHWEST WISCONSIN

CITY           SKY/WX    TMP DP  RH WIND       PRES   REMARKS
LA CROSSE      LGT RAIN  43  40  89 SE12G20   29.76F FOG
SPARTA         HVY RAIN  41  39  93 E9G17     29.81S
VIROQUA        CLOUDY    41  41  98 SE17G23   29.77F
BOSCOBEL       LGT RAIN  48  41  76 NE5       29.79F
PRAIRIE DU CHI LGT RAIN  47  42  83 E5        29.75F
PLATTEVILLE    CLOUDY    55  41  59 SE17      29.77S
$$

WIZ056-057-062-063-064-067-068-241800-
SOUTH CENTRAL WISCONSIN

CITY           SKY/WX    TMP DP  RH WIND       PRES   REMARKS
BARABOO/DELLS  LGT RAIN  43  37  80 E14       29.82F
LONE ROCK      CLOUDY    49  40  71 E17       29.79F
WATERTOWN      CLOUDY    50  36  59 E17G28    29.86F
MADISON        CLOUDY    51  39  63 SE17      29.84F
MIDDLETON      CLOUDY    52  38  58 SE17G23   29.82F
MONROE         RAIN      51  41  67 SE15G22   29.81F
JANESVILLE     CLOUDY    57  34  41 SE18G29   29.84F
$$

WIZ051-052-058>065-066-070>072-241800-
SOUTHEAST WISCONSIN

CITY           SKY/WX    TMP DP  RH WIND       PRES   REMARKS
MILWAUKEE      CLOUDY    50  37  61 SE17      29.96F
WAUKESHA       CLOUDY    48  36  61 S20G29    29.92F
MILWAUKEE/TIMM NOT AVBL
RACINE         CLOUDY    50  37  61 SE17G25   29.96F
BURLINGTON     CLOUDY    53  37  54 SE16G23   29.89F
KENOSHA        CLOUDY    56  37  49 SE17G28   29.93F
FOND DU LAC    CLOUDY    46  36  68 SE15G22   29.92F
SHEBOYGAN      CLOUDY    42  35  76 E15       29.97F
WEST BEND      CLOUDY    45  34  65 SE10G17   29.95F
JUNEAU         CLOUDY    46  34  62 E20G25    29.88F
$$

LSZ147-162-241800-
LAKE SUPERIOR

STATION/POSITION TIME  TEMP    WIND        PRES    WAVE
                       AIR SEA DIR/SP/G            HT/PER
                 (UTC) (F)     (DEG/KT/KT) (MB)    (FT/S)
DEVILS ISLAND    1700   36      90/ 17/ 18 1015.3F
PORT WING        1640   38      90/  5/  8 1013.5S
SAXON HARBOR     1640          120/  1/  5 1013.9F
$$

LMZ867-665-643>646-241800-
LAKE MICHIGAN

STATION/POSITION TIME  TEMP    WIND        PRES    WAVE
                       AIR SEA DIR/SP/G            HT/PER
                 (UTC) (F)     (DEG/KT/KT) (MB)    (FT/S)
NORTHPORT PIER   1600   36     120/  3/  4 1019.3R
SISTER BAY       1608   44     130/  7/ 10   N/A
KEWAUNEE LAKESHO 1700   36      80/  5/  7 1017.7F
SHEBOYGAN LAKESH 1700   40     100/ 21/ 22 1015.5F
PORT WASHINGTON  1640   40     100/ 12/ 15 1015.6F
MILWAUKEE LAKESH 1700   41     110/ 15/ 16   N/A
KENOSHA   LAKESH 1700   44     130/ 15/ 18   N/A
$$

TC  - TEMPERATURE IN CELSIUS
VSB - VISIBILITY IN STATUTE MILES
WCI - WIND CHILL INDEX
HX  - HEAT INDEX




USA.gov is the U.S. government's official web portal to all federal, state and local government web resources and services.